Content
SEND FEEDBACK

Daily
Averages
Monthly
Summary
United States of America

BIG WATER, UTAH


Home > North America > United States > Utah
Elevation: 4166 feet     Latitude: 37 05N     Longitude: 111 40W

WEATHER
 
SELECT A DAY
Number of Records: 194,800;   Date Range: 1/1/95 - 8/28/14
 
SHARE

PRINT THIS DATA

[ ← Previous Day ]
WEATHER ALMANAC - JUNE 26, 2013
[ Next Day → ]
[ °C ]   °F
We're sorry. There is no daily almanac available for Big Water, Utah on June 26, 2013.
WEATHER BY HOUR - JUNE 26, 2013
[ °C ]   °F
Local TimeTemperatureDewpointHumidityBarometerVisibilityWind DirectionWind SpeedGust SpeedPrecipitationEventsConditions
1:53 AM75.9 °F39.0 °F26 %29.83 in10.0 miSW (230°)3.5 mphClear
2:53 AM79.0 °F37.0 °F22 %29.83 in10.0 miSW (230°)3.5 mphClear
3:53 AM73.0 °F36.0 °F26 %29.86 in10.0 miEast (100°)3.5 mphClear
4:53 AM73.0 °F37.0 °F27 %29.88 in10.0 miCalmClear
5:53 AM75.0 °F37.9 °F26 %29.89 in10.0 miCalmClear
6:53 AM77.0 °F36.0 °F23 %29.90 in10.0 miSE (130°)3.5 mphClear
7:53 AM81.0 °F36.0 °F20 %29.91 in10.0 miNE (50°)3.5 mphClear
8:53 AM82.9 °F35.1 °F18 %29.92 in10.0 miNorth (360°)5.8 mphClear
9:53 AM87.1 °F34.0 °F15 %29.91 in10.0 miNNW (340°)4.6 mphClear
10:53 AM89.1 °F33.1 °F14 %29.91 in10.0 miVariable3.5 mphClear
11:53 AM91.9 °F33.1 °F12 %29.89 in10.0 miNorth (10°)6.9 mphClear
12:53 PM95.0 °F33.1 °F11 %29.87 in10.0 miNorth (10°)6.9 mphClear
1:53 PM97.0 °F33.1 °F11 %29.86 in10.0 miVariable4.6 mph17.3 mphClear
2:53 PM98.1 °F33.1 °F10 %29.83 in10.0 miNNW (330°)6.9 mphClear
3:53 PM98.1 °F33.1 °F10 %29.82 in10.0 miVariable3.5 mphClear
4:53 PM100.0 °F33.1 °F10 %29.80 in10.0 miNNW (340°)5.8 mphClear
5:53 PM100.0 °F33.1 °F10 %29.79 in10.0 miVariable4.6 mphClear
6:53 PM99.0 °F32.0 °F10 %29.79 in10.0 miNorth (10°)4.6 mphClear
7:53 PM93.9 °F33.1 °F12 %29.80 in10.0 miCalmClear
8:53 PM91.9 °F36.0 °F14 %29.82 in10.0 miCalmClear
9:53 PM90.0 °F36.0 °F15 %29.85 in10.0 miVariable4.6 mphClear
10:53 PM88.0 °F37.0 °F16 %29.86 in10.0 miWest (270°)3.5 mphClear
11:53 PM87.1 °F37.0 °F17 %29.87 in10.0 miVariable3.5 mphClear
Hourly data recorded from KPGA, located miles away from Big Water, Utah







STORIES FROM OUR PARTNERS